Total_Precipitation_Accumulation
1.51 1.95 2.42 2.94 3.58 4.43 5.34 5.65 5.33 4.75 4.25 3.75 3.15 2.65 2.36 2.14 2.05 1.79 1.47 1.34 1.30 1.28 1.36 1.15 1.23 1.31 1.33 1.32 1.35 1.41 1.33 1.14 1.29 1.46 1.28 1.05 0.94 0.92 0.83 0.77 0.80 0.72 0.79
1.57 2.06 2.63 3.05 3.39 3.90 4.63 4.83 4.40 3.77 3.17 2.78 2.53 2.31 2.18 1.86 1.65 1.57 1.42 1.18 1.15 1.16 1.18 1.16 0.98 1.01 1.10 1.01 1.04 1.24 1.26 1.06 1.15 1.32 1.37 1.17 1.15 0.98 0.61 0.65 0.71 0.70 0.81
1.41 2.11 2.61 2.90 3.18 3.37 3.34 3.39 3.18 2.66 2.34 2.18 2.08 1.99 2.01 1.81 1.54 1.39 1.22 1.03 0.96 0.95 0.97 0.94 0.91 0.99 0.98 1.00 1.00 1.03 1.11 1.05 0.97 1.06 1.31 1.21 1.05 0.88 0.70 0.64 0.62 0.74 0.92
1.24 1.97 2.23 2.30 2.39 2.50 2.30 2.28 2.31 2.11 2.00 1.90 1.81 1.64 1.40 1.29 1.23 1.21 1.14 1.02 0.92 0.86 0.84 0.84 0.79 0.85 0.87 1.02 0.87 0.89 0.97 0.98 0.86 0.86 0.93 0.94 0.98 0.95 0.83 0.73 0.70 0.74 0.88
0.92 1.26 1.29 1.40 1.51 1.62 1.66 1.80 2.01 1.99 1.86 1.81 1.84 1.80 1.46 1.28 1.23 1.21 1.21 1.09 0.95 0.86 0.83 0.82 0.82 0.80 0.76 0.82 0.86 0.94 0.90 0.89 0.84 0.82 0.86 0.93 0.94 0.89 0.88 0.87 0.79 0.74 0.66
0.61 0.81 0.86 0.89 0.97 1.04 1.15 1.33 1.70 1.83 1.73 1.66 1.68 1.63 1.52 1.45 1.32 1.15 1.06 1.02 0.96 0.93 0.92 0.87 0.89 0.83 0.78 0.81 0.81 0.82 0.81 0.87 0.93 0.86 0.86 0.98 1.00 0.90 0.88 0.85 0.78 0.72 0.62
0.51 0.64 0.79 0.81 0.75 0.73 0.81 0.96 1.21 1.33 1.36 1.42 1.51 1.55 1.57 1.52 1.34 1.19 1.05 0.99 0.90 0.88 0.98 0.96 0.92 0.91 0.90 0.85 0.83 0.81 0.80 0.87 0.96 0.89 0.81 0.83 0.87 0.92 0.93 0.90 0.80 0.80 0.74
0.37 0.41 0.51 0.51 0.50 0.55 0.58 0.67 0.81 0.93 1.02 1.12 1.24 1.34 1.35 1.32 1.22 1.23 1.13 1.02 0.91 0.87 0.95 0.98 0.89 0.85 0.86 0.84 0.91 0.82 0.77 0.86 0.94 0.91 1.02 0.95 0.82 0.96 1.03 1.02 1.05 1.03 1.04
0.22 0.23 0.24 0.25 0.30 0.38 0.49 0.58 0.66 0.74 0.82 0.90 1.04 1.15 1.18 1.17 1.19 1.20 1.10 1.03 1.03 0.95 0.97 0.91 0.91 0.88 0.84 0.86 0.93 0.87 0.88 0.91 0.90 0.98 1.15 1.16 1.04 1.01 1.05 1.14 1.27 1.40 1.33
0.21 0.19 0.17 0.16 0.17 0.21 0.35 0.50 0.56 0.68 0.80 0.85 0.86 0.90 1.05 1.06 1.08 1.08 1.02 1.07 1.06 1.01 1.05 1.04 0.96 0.94 0.92 0.97 1.05 1.00 0.98 1.04 1.07 1.20 1.30 1.32 1.27 1.25 1.16 1.21 1.28 1.37 1.44
0.24 0.17 0.15 0.14 0.15 0.16 0.25 0.36 0.45 0.56 0.66 0.69 0.72 0.85 0.95 0.96 0.94 0.95 0.92 0.95 0.95 0.95 0.96 0.98 0.99 0.97 1.03 1.19 1.39 1.35 1.28 1.29 1.32 1.38 1.50 1.54 1.57 1.54 1.38 1.34 1.33 1.33 1.43
0.33 0.24 0.20 0.17 0.19 0.19 0.20 0.27 0.31 0.35 0.40 0.49 0.56 0.69 0.84 0.84 0.83 0.85 0.93 0.97 0.92 0.85 0.78 0.82 0.88 0.87 0.97 1.16 1.44 1.56 1.56 1.54 1.46 1.53 1.72 1.74 1.68 1.57 1.45 1.46 1.40 1.35 1.45
0.30 0.39 0.35 0.22 0.20 0.17 0.18 0.22 0.23 0.27 0.32 0.39 0.46 0.56 0.70 0.80 0.83 0.86 0.90 0.95 0.94 0.90 0.88 0.89 0.91 0.98 1.02 1.04 1.23 1.42 1.49 1.52 1.52 1.62 1.66 1.66 1.71 1.61 1.54 1.46 1.41 1.38 1.48
0.28 0.44 0.48 0.26 0.20 0.20 0.20 0.22 0.24 0.28 0.31 0.36 0.46 0.55 0.64 0.76 0.86 0.90 0.91 0.94 0.98 0.96 0.99 1.00 1.05 1.11 1.11 1.09 1.19 1.33 1.43 1.49 1.55 1.63 1.69 1.68 1.65 1.67 1.74 1.63 1.56 1.61 1.67
0.30 0.29 0.33 0.25 0.22 0.23 0.23 0.24 0.26 0.31 0.33 0.40 0.48 0.55 0.64 0.69 0.76 0.88 0.93 0.99 1.01 0.98 1.07 1.16 1.18 1.17 1.12 1.07 1.27 1.40 1.40 1.52 1.60 1.61 1.56 1.60 1.75 1.80 1.81 1.66 1.66 1.75 1.74
0.34 0.35 0.39 0.36 0.33 0.33 0.32 0.26 0.30 0.38 0.46 0.55 0.59 0.62 0.69 0.76 0.77 0.81 0.84 0.95 1.01 1.07 1.19 1.27 1.29 1.25 1.09 1.26 1.39 1.40 1.43 1.52 1.57 1.57 1.48 1.41 1.44 1.52 1.59 1.54 1.49 1.55 1.61
0.50 0.59 0.65 0.56 0.47 0.41 0.38 0.37 0.43 0.49 0.55 0.64 0.76 0.82 0.85 0.89 0.91 0.94 0.95 1.01 1.16 1.25 1.27 1.28 1.30 1.29 1.35 1.37 1.25 1.20 1.14 1.20 1.27 1.26 1.23 1.06 0.99 1.20 1.27 1.43 1.44 1.35 1.32
0.55 0.63 0.68 0.67 0.63 0.58 0.53 0.54 0.59 0.65 0.77 0.88 1.00 1.10 1.13 1.19 1.27 1.33 1.30 1.33 1.41 1.50 1.49 1.42 1.42 1.51 1.50 1.45 1.26 1.17 1.05 1.04 1.06 1.07 1.05 1.04 1.03 1.07 1.15 1.24 1.27 1.25 1.18
0.61 0.72 0.70 0.67 0.68 0.78 0.78 0.75 0.77 0.83 0.99 1.14 1.26 1.34 1.38 1.44 1.49 1.50 1.58 1.67 1.78 1.81 1.81 1.76 1.79 1.80 1.83 1.76 1.48 1.32 1.16 1.14 1.11 1.14 1.17 1.16 1.06 1.10 1.07 1.08 1.12 1.13 1.17
0.67 0.75 0.78 0.76 0.82 0.97 0.98 0.98 1.06 1.14 1.17 1.19 1.29 1.45 1.61 1.72 1.71 1.74 1.85 2.01 2.15 2.13 2.12 2.14 2.13 2.05 2.01 1.94 1.59 1.40 1.23 1.26 1.25 1.28 1.23 1.16 1.03 0.98 0.93 0.95 1.03 1.00 1.00
0.63 0.72 0.76 0.81 0.84 0.97 1.07 1.20 1.35 1.38 1.38 1.40 1.45 1.54 1.69 1.84 1.87 1.92 1.96 2.09 2.22 2.21 2.17 2.09 2.01 1.95 1.97 1.94 1.65 1.47 1.30 1.34 1.37 1.28 1.23 1.18 1.08 0.92 0.87 0.83 0.86 0.88 0.93
0.53 0.61 0.74 0.82 0.87 0.99 1.19 1.33 1.43 1.52 1.58 1.63 1.76 1.78 1.84 1.83 1.79 1.90 1.98 2.07 2.18 2.16 2.11 2.13 2.02 1.92 1.90 1.77 1.57 1.41 1.33 1.42 1.49 1.44 1.34 1.27 1.13 0.92 0.85 0.76 0.77 0.79 0.79
0.56 0.60 0.70 0.80 0.86 0.95 1.11 1.37 1.42 1.46 1.51 1.60 1.68 1.78 1.81 1.83 1.83 1.90 1.99 2.11 2.14 2.10 2.03 2.05 2.06 1.99 1.90 1.84 1.63 1.41 1.30 1.32 1.36 1.47 1.53 1.37 1.21 1.03 0.90 0.89 0.87 0.80 0.76
0.54 0.57 0.65 0.76 0.81 0.78 0.85 0.98 1.07 1.14 1.21 1.30 1.39 1.44 1.54 1.64 1.79 1.96 1.98 2.04 2.11 2.14 2.13 2.09 2.04 2.00 1.96 1.96 1.79 1.57 1.39 1.37 1.41 1.48 1.53 1.40 1.28 1.12 0.98 0.94 0.85 0.75 0.74
0.46 0.50 0.60 0.63 0.65 0.70 0.68 0.71 0.78 0.96 1.09 1.13 1.19 1.29 1.41 1.53 1.69 1.89 1.99 1.90 1.91 2.02 1.99 1.89 1.81 1.75 1.71 1.79 1.70 1.51 1.42 1.42 1.50 1.56 1.63 1.57 1.44 1.33 1.19 1.09 1.03 0.98 0.94
0.44 0.50 0.56 0.56 0.55 0.62 0.63 0.63 0.73 0.93 1.06 1.08 1.10 1.14 1.18 1.29 1.42 1.56 1.65 1.58 1.39 1.41 1.37 1.25 1.14 1.11 1.14 1.22 1.19 1.12 1.07 1.12 1.25 1.36 1.52 1.51 1.41 1.34 1.30 1.26 1.20 1.14 1.06